• In Hungary
  • List of Countries
  • For 7 days
  • Water Temperature
  • Satellite Maps
  • Weather Map
  • News
  • Weather Widgets
  • user-avatar
    Login

    Hourly Weather Rudnya Lozovskaya

    Today, 20 November, Monday

    Time Temperature Precipitation Wind Pressure Humidity
    00:00 -1°C° 0 mm 3 mps 744 mmHg 90%
    01:00 -1°C° 0 mm 3 mps 744 mmHg 90%
    02:00 -2°C° 0 mm 3 mps 744 mmHg 91%
    03:00 -2°C° 0 mm 3 mps 744 mmHg 92%
    04:00 -2°C° 0 mm 3 mps 744 mmHg 92%
    05:00 -2°C° 0 mm 3 mps 744 mmHg 93%
    06:00 -2°C° 0 mm 2 mps 744 mmHg 93%
    07:00 -3°C° 0 mm 2 mps 744 mmHg 93%
    08:00 -3°C° 0 mm 2 mps 745 mmHg 93%
    09:00 -2°C° 0 mm 2 mps 745 mmHg 89%
    10:00 +1°C° 0 mm 2 mps 745 mmHg 85%
    11:00 +1°C° 0 mm 3 mps 745 mmHg 81%
    12:00 +1°C° 0 mm 3 mps 744 mmHg 81%
    13:00 +1°C° 0 mm 3 mps 744 mmHg 81%
    14:00 +2°C° 0 mm 3 mps 744 mmHg 81%
    15:00 +1°C° 0 mm 3 mps 744 mmHg 85%
    16:00 +1°C° 0 mm 2 mps 744 mmHg 88%
    17:00 -1°C° 0 mm 2 mps 744 mmHg 92%
    18:00 -2°C° 0 mm 2 mps 744 mmHg 92%
    19:00 -2°C° 0 mm 2 mps 744 mmHg 92%
    20:00 -2°C° 0 mm 2 mps 743 mmHg 92%
    21:00 -2°C° 0 mm 2 mps 743 mmHg 92%
    22:00 -2°C° 0 mm 2 mps 743 mmHg 92%
    23:00 -2°C° 0 mm 2 mps 743 mmHg 92%

    Tomorrow, 21 November, Tuesday

    Time Temperature Precipitation Wind Pressure Humidity
    00:00 -2°C° 0.1 mm 2 mps 743 mmHg 92%
    01:00 -1°C° 0.1 mm 2 mps 743 mmHg 92%
    02:00 -1°C° 0.1 mm 2 mps 743 mmHg 92%
    03:00 -1°C° 0.1 mm 2 mps 743 mmHg 92%
    04:00 -1°C° 0.1 mm 2 mps 743 mmHg 93%
    05:00 -1°C° 0.1 mm 2 mps 743 mmHg 94%
    06:00 -1°C° 0 mm 2 mps 743 mmHg 94%
    07:00 -1°C° 0 mm 2 mps 743 mmHg 94%
    08:00 -1°C° 0 mm 2 mps 743 mmHg 94%
    09:00 +1°C° 0 mm 2 mps 743 mmHg 93%
    10:00 +1°C° 0 mm 2 mps 743 mmHg 91%
    11:00 +1°C° 0 mm 2 mps 744 mmHg 89%
    12:00 +1°C° 0.1 mm 2 mps 744 mmHg 89%
    13:00 +2°C° 0.1 mm 2 mps 744 mmHg 88%
    14:00 +2°C° 0.1 mm 2 mps 744 mmHg 87%
    15:00 +1°C° 0.1 mm 2 mps 744 mmHg 89%
    16:00 +1°C° 0.1 mm 2 mps 744 mmHg 91%
    17:00 -1°C° 0.1 mm 2 mps 744 mmHg 93%
    18:00 -1°C° 0.1 mm 2 mps 744 mmHg 93%
    19:00 -1°C° 0.1 mm 2 mps 745 mmHg 94%
    20:00 -1°C° 0.1 mm 2 mps 745 mmHg 94%
    21:00 +1°C° 0 mm 1 mps 745 mmHg 94%
    22:00 +1°C° 0 mm 1 mps 745 mmHg 94%
    23:00 +1°C° 0 mm 1 mps 745 mmHg 94%

    Day after tomorrow, 22 November, Wednesday

    Time Temperature Precipitation Wind Pressure Humidity
    00:00 +1°C° 0 mm 1 mps 746 mmHg 94%
    01:00 0°C° 0 mm 1 mps 746 mmHg 94%
    02:00 0°C° 0 mm 1 mps 746 mmHg 94%
    03:00 0°C° 0 mm 1 mps 746 mmHg 93%
    04:00 -2°C° 0 mm 2 mps 747 mmHg 93%
    05:00 -2°C° 0 mm 2 mps 747 mmHg 92%
    06:00 -2°C° 0 mm 2 mps 747 mmHg 92%
    07:00 -2°C° 0 mm 2 mps 748 mmHg 91%
    08:00 -2°C° 0 mm 2 mps 748 mmHg 91%
    09:00 -1°C° 0 mm 2 mps 749 mmHg 87%
    10:00 +1°C° 0 mm 2 mps 749 mmHg 84%
    11:00 +1°C° 0 mm 2 mps 749 mmHg 81%
    12:00 +2°C° 0.1 mm 2 mps 750 mmHg 80%
    13:00 +2°C° 0.1 mm 2 mps 750 mmHg 80%
    14:00 +2°C° 0.1 mm 2 mps 750 mmHg 79%
    15:00 +1°C° 0 mm 2 mps 750 mmHg 83%
    16:00 -1°C° 0 mm 2 mps 751 mmHg 86%
    17:00 -2°C° 0 mm 2 mps 751 mmHg 90%
    18:00 -1°C° 0 mm 1 mps 751 mmHg 91%
    19:00 -1°C° 0 mm 1 mps 751 mmHg 92%
    20:00 -1°C° 0 mm 1 mps 752 mmHg 92%
    21:00 -1°C° 0 mm 1 mps 752 mmHg 93%
    22:00 -1°C° 0 mm 1 mps 752 mmHg 93%
    23:00 -3°C° 0 mm 0 mps 752 mmHg 93%

    23 November, Thursday

    Time Temperature Precipitation Wind Pressure Humidity
    00:00 -3°C° 0 mm 0 mps 752 mmHg 93%
    01:00 -3°C° 0 mm 0 mps 753 mmHg 93%
    02:00 -3°C° 0 mm 0 mps 753 mmHg 93%
    03:00 -3°C° 0 mm 0 mps 753 mmHg 93%
    04:00 -3°C° 0 mm 0 mps 753 mmHg 93%
    05:00 -3°C° 0 mm 0 mps 753 mmHg 93%
    06:00 -3°C° 0 mm 0 mps 754 mmHg 93%
    07:00 -2°C° 0 mm 1 mps 754 mmHg 93%
    08:00 -2°C° 0 mm 1 mps 754 mmHg 93%
    09:00 -1°C° 0 mm 1 mps 754 mmHg 89%
    10:00 0°C° 0 mm 1 mps 754 mmHg 85%
    11:00 +1°C° 0 mm 1 mps 754 mmHg 81%
    12:00 +1°C° 0 mm 1 mps 754 mmHg 80%
    13:00 +2°C° 0 mm 1 mps 754 mmHg 80%
    14:00 +2°C° 0 mm 1 mps 754 mmHg 79%
    15:00 -1°C° 0 mm 2 mps 754 mmHg 82%
    16:00 -2°C° 0 mm 2 mps 754 mmHg 85%
    17:00 -3°C° 0 mm 2 mps 753 mmHg 89%
    18:00 -3°C° 0 mm 2 mps 753 mmHg 87%
    19:00 -2°C° 0 mm 2 mps 753 mmHg 86%
    20:00 -2°C° 0 mm 2 mps 753 mmHg 85%
    21:00 -2°C° 0 mm 2 mps 753 mmHg 83%
    22:00 -2°C° 0 mm 2 mps 753 mmHg 81%
    23:00 -2°C° 0 mm 3 mps 753 mmHg 80%

    24 November, Friday

    Time Temperature Precipitation Wind Pressure Humidity
    00:00 -2°C° 0 mm 2 mps 753 mmHg 80%
    01:00 -1°C° 0 mm 2 mps 753 mmHg 80%
    02:00 -1°C° 0 mm 2 mps 752 mmHg 80%
    03:00 -1°C° 0 mm 2 mps 752 mmHg 81%
    04:00 -1°C° 0 mm 2 mps 752 mmHg 82%
    05:00 -1°C° 0 mm 2 mps 752 mmHg 82%
    06:00 -1°C° 0 mm 2 mps 752 mmHg 84%
    07:00 -1°C° 0 mm 2 mps 753 mmHg 85%
    08:00 -1°C° 0 mm 2 mps 753 mmHg 86%
    09:00 -1°C° 0.1 mm 2 mps 753 mmHg 86%
    10:00 -1°C° 0.1 mm 2 mps 754 mmHg 86%
    11:00 +1°C° 0.1 mm 2 mps 754 mmHg 87%
    12:00 +1°C° 0.1 mm 2 mps 754 mmHg 88%
    13:00 +1°C° 0.1 mm 2 mps 754 mmHg 89%
    14:00 +1°C° 0.1 mm 2 mps 755 mmHg 90%
    15:00 +1°C° 0.1 mm 2 mps 755 mmHg 91%
    16:00 +1°C° 0.1 mm 2 mps 755 mmHg 92%
    17:00 -1°C° 0.1 mm 2 mps 756 mmHg 93%
    18:00 -1°C° 0 mm 2 mps 756 mmHg 93%
    19:00 +1°C° 0 mm 2 mps 756 mmHg 94%
    20:00 +1°C° 0 mm 2 mps 756 mmHg 94%
    21:00 +1°C° 0 mm 2 mps 757 mmHg 94%
    22:00 +1°C° 0 mm 2 mps 757 mmHg 94%
    23:00 +1°C° 0 mm 2 mps 757 mmHg 95%

    25 November, Saturday

    Time Temperature Precipitation Wind Pressure Humidity
    00:00 +1°C° 0 mm 2 mps 757 mmHg 95%
    01:00 +1°C° 0 mm 2 mps 758 mmHg 95%
    02:00 +1°C° 0 mm 2 mps 758 mmHg 95%
    03:00 +1°C° 0 mm 2 mps 758 mmHg 96%
    04:00 +1°C° 0 mm 2 mps 758 mmHg 96%
    05:00 +1°C° 0 mm 2 mps 758 mmHg 96%
    06:00 +1°C° 0 mm 2 mps 758 mmHg 96%
    07:00 +1°C° 0 mm 2 mps 758 mmHg 97%
    08:00 +2°C° 0 mm 1 mps 758 mmHg 97%
    09:00 +2°C° 0 mm 1 mps 759 mmHg 96%
    10:00 +3°C° 0 mm 1 mps 759 mmHg 96%
    11:00 +3°C° 0 mm 1 mps 759 mmHg 95%
    12:00 +3°C° 0 mm 1 mps 759 mmHg 96%
    13:00 +3°C° 0 mm 1 mps 759 mmHg 96%
    14:00 +3°C° 0 mm 1 mps 759 mmHg 96%
    15:00 +3°C° 0 mm 1 mps 759 mmHg 96%
    16:00 +3°C° 0 mm 1 mps 759 mmHg 97%
    17:00 +2°C° 0 mm 2 mps 759 mmHg 97%
    18:00 +1°C° 0 mm 2 mps 759 mmHg 97%
    19:00 +1°C° 0 mm 2 mps 759 mmHg 97%
    20:00 +1°C° 0 mm 2 mps 759 mmHg 97%
    21:00 +1°C° 0 mm 2 mps 759 mmHg 97%
    22:00 +1°C° 0 mm 2 mps 760 mmHg 97%
    23:00 +1°C° 0 mm 2 mps 760 mmHg 97%
    Show more